www.pogodaiklimat.ru

Погода и климат >> Архив погоды >> Беларусь >> Минск


АРХИВ ПОГОДЫ в Минске

Время (UTC), дата Ветер
(напр.,м/с)
 
Видим.   Явления Облачность Т
(С)
Тd
(С)
f
(%)
Тe
(С)
Тes
(С)
Комфортность P
(гПа)
Po
(гПа)
Тmin
(С)
Tmax
(С)
R
(мм)
R24
(мм)
S
(см)
09 10.12 З 1 7000 м дымка {снег} 8/4 720 м
[Sc Ac trans]
-1.4 -2.9 90 -4 -3 по сезону 1004.5 976.4
12 10.12 штиль 0 10 км [диам. отлож. мокр. снега 4 мм] 8/3 800 м
[Sc Ac trans]
-1.5 -3.3 88 -3 -2 по сезону 1004.0 975.9
15 10.12 штиль 0 8000 м 10/10 330 м
[Sc]
-1.3 -2.5 92 -3 -3 по сезону 1004.1 976.0
18 10.12 штиль 0 7000 м дымка 10/10 420 м
[Sc]
-0.9 -2.0 92 -2 -2 по сезону 1003.0 975.0 -0.1 0.0
21 10.12 штиль 0 10 км 10/6 660 м
[Sc Ac trans]
-2.5 -3.9 90 -4 -4 по сезону 1003.8 975.6
00 11.12 штиль 0 6000 м дымка 10/10 270 м
[Sc]
-2.8 -3.7 94 -4 -4 по сезону 1003.0 974.8
03 11.12 Ю 1 3000 м дымка 10/10 330 м
[Sc]
-3.0 -3.3 98 -5 -5 по сезону 1002.5 974.3
06 11.12 ЮВ 1 10 км дымка 10/10 330 м
[Sc]
-3.0 -4.2 91 -5 -5 по сезону 1002.0 973.8 -4.0 5
09 11.12 Ю 2 3700 м слабый снег 10/10 300 м
[Sc]
-1.9 -3.1 91 -6 -6 по сезону 1002.9 974.8
12 11.12 Ю 2 10 км {снег} 10/10 330 м
[Sc]
-1.0 -2.2 92 -5 -5 по сезону 1002.5 974.5
15 11.12 Ю 2 8000 м слабый снег 10/10 330 м
[Sc]
-0.5 -1.2 95 -4 -4 по сезону 1003.4 975.4
18 11.12 Ю 1 6000 м дымка {снег} 10/10 360 м
[Sc]
+0.2 -0.2 97 -2 -2 по сезону 1005.2 977.3 +0.2 2
21 11.12 Ю 2 11 км 10/10 420 м
[Sc]
+0.4 -0.4 94 -3 -3 по сезону 1005.0 977.1
00 12.12 ЮВ 1 12 км 10/10 300 м
[Sc]
-0.9 -1.5 96 -3 -3 по сезону 1004.7 976.7
03 12.12 ЮВ 2 10 км 10/10 330 м
[Sc]
-0.5 -1.3 94 -4 -4 по сезону 1003.8 975.8
06 12.12 ЮВ 2 8000 м дымка 10/10 330 м
[Sc]
+0.5 -0.3 94 -3 -3 по сезону 1003.1 975.3 -1.0 7
09 12.12 Ю 3 10 км 10/8 270 м
[Sc As trans]
+1.4 +0.7 95 -3 -3 по сезону 1002.6 974.9
12 12.12 Ю 3 11 км 10/6 1410 м
[Sc Ac trans]
+3.0 +1.7 91 -1 -1 по сезону 1001.7 974.2
15 12.12 Ю 2 13 км 8/0
[Ac trans]
+3.8 +2.4 91 +1 +1 тепло 1002.9 975.4
18 12.12 Ю 2 10 км 8/0
[Ac trans]
+4.1 +2.9 92 +1 +1 тепло 1004.1 976.6 +4.3
21 12.12 Ю 1 15 км 10/8 1020 м
[Sc Ac trans]
+4.8 +3.6 92 +3 +3 тепло 1006.0 978.5
00 13.12 ЮЗ 2 23 км 8/8 840 м
[Sc]
+4.2 +1.2 81 +2 +2 тепло 1008.1 980.5
03 13.12 ЮЗ 2 24 км 6/0
[Ac trans]
+2.0 -1.8 76 -1 -1 тепло 1010.0 982.1
06 13.12 ЮЗ 2 26 км 8/0
[Ac trans Ci fib]
+1.3 -2.0 79 -2 -2 тепло 1011.9 983.9 +1.1
09 13.12 З 2 26 км 8/0
[Ac trans Ci fib]
+1.8 -2.0 76 -1 -1 тепло 1013.5 985.5
12 13.12 З 3 30 км 8/0
[Ac trans]
+1.8 -3.0 70 -2 -2 по сезону 1014.2 986.2
15 13.12 штиль 0 25 км ясно +0.2 -2.8 80 -1 -1 тепло 1014.8 986.6
18 13.12 Ю 1 14 км ясно -1.1 -2.7 89 -3 -3 по сезону 1014.8 986.5 +2.2
21 13.12 штиль 0 9000 м дымка ясно -2.3 -3.3 93 -4 -4 по сезону 1014.1 985.6
00 14.12 штиль 0 6000 м дымка ясно -3.5 -4.2 95 -5 -5 по сезону 1012.4 983.9
03 14.12 штиль 0 10 км ясно -3.6 -4.6 93 -5 -5 по сезону 1010.4 981.9
06 14.12 ЮВ 2 10 км 10/8 600 м
[St Ac trans]
-2.4 -3.4 93 -7 -7 по сезону 1007.7 979.4 -4.3
09 14.12 ЮВ 3 10 км в посл. час снег 10/10 300 м
[Sc]
-0.9 -2.0 92 -6 -6 по сезону 1005.3 977.2
12 14.12 Ю 4
{10}
14 км {снег} 10/10 270 м
[Sc]
+0.2 -1.4 89 -5 -5 по сезону 1002.6 974.7
15 14.12 Ю 3
{10}
5000 м слабый снег 10/10 300 м
[Sc]
+0.3 -1.5 88 -4 -4 по сезону 1001.1 973.3
18 14.12 Ю 3 11 км в посл. час снег 10/10 240 м
[Frnb]
+0.4 -0.4 94 -4 -4 по сезону 1000.1 972.3 +0.5 0.8
21 14.12 Ю 3 10 км {снег} 10/10 210 м
[Sc]
+0.9 +0.2 95 -4 -4 по сезону 999.0 971.3
00 15.12 Ю 3 16 км {снег} 10/10 330 м
[Sc]
+1.4 -0.2 89 -3 -3 по сезону 999.0 971.4
03 15.12 Ю 2 20 км 10/10 270 м
[Sc]
+1.8 -0.8 83 -1 -1 тепло 1000.1 972.5
06 15.12 Ю 2 12 км 10/10 330 м
[Sc]
+0.3 -1.6 87 -3 -3 по сезону 1003.4 975.5 +0.3 0.3
09 15.12 Ю 1 10 км 10/10 600 м
[Sc Ac und]
+0.6 -1.8 84 -1 -1 тепло 1004.1 976.2
12 15.12 Ю 3 17 км 8/6 630 м
[Sc Ac lent]
+1.7 -1.5 79 -2 -2 по сезону 1004.2 976.4
15 15.12 ЮВ 3 18 км 10/8 1020 м
[Sc Ac cuf]
+0.6 -1.7 85 -4 -4 по сезону 1004.7 976.8
18 15.12 ЮВ 4 17 км 10/10 330 м
[Sc]
+0.5 -1.4 87 -5 -5 по сезону 1002.8 975.0 +1.8
21 15.12 Ю 3 3300 м слабый снег 10/1 330 м
[Frnb]
-0.1 -0.1 100 -5 -5 по сезону 1001.3 973.4
00 16.12 Ю 3 4900 м дымка {снег} 10/10 330 м
[Sc]
+0.9 +0.6 98 -4 -4 по сезону 1000.7 973.0
03 16.12 Ю 1 6000 м дымка 10/10 300 м
[Sc]
+1.7 +1.0 95 -0 -0 тепло 1002.0 974.3
06 16.12 штиль 0 3200 м дымка 10/10 210 м
[Frnb]
+1.6 +1.2 97 0 0 тепло 1001.3 973.6 -0.2 5 2
09 16.12 штиль 0 1800 м дымка {туман} 10/10 150 м
[St]
+1.4 +1.0 97 0 0 тепло 1002.0 974.3
12 16.12 штиль 0 2400 м слабый снег {дождь} 10/10 180 м
[Frnb Ns]
+1.1 +0.9 99 -0 -0 тепло 1000.4 972.7
15 16.12 С 1 3800 м слабый снег 10/8 240 м
[Sc As op]
+0.5 +0.1 97 -2 -2 по сезону 1000.1 972.3
18 16.12 С 2 17 км в посл. час дождь {снег} 10/10 360 м
[Sc]
+0.5 -0.2 95 -3 -3 по сезону 1000.7 972.9 +1.8 5
21 16.12 СЗ 1 1800 м снег 10/8 180 м
[Sc As op]
-0.1 -0.5 97 -2 -2 тепло 1003.6 975.7
00 17.12 СЗ 4 10 км в посл. час снег 10/10 240 м
[Sc]
-0.5 -1.0 96 -6 -6 по сезону 1006.8 978.7
03 17.12 СЗ 3 13 км 10/10 300 м
[Sc]
-0.7 -1.9 92 -6 -6 по сезону 1010.0 981.8
06 17.12 З 1 9000 м 10/10 300 м
[Sc]
-0.6 -1.9 91 -3 -3 по сезону 1013.0 984.8 -0.7 2 6

 

Местоположение метеостанции Минск (город Минск, Беларусь): широта 53.93 долгота 27.63 высота над уровнем моря 231 м.

В архиве по умолчанию представлена погода в Минске за последнюю неделю. Архивные данные за месяц целиком и за предыдущие месяцы, начиная с января 2011 года, Вы можете получить, выбрав интересующий диапазон дат из раскрывающегося списка и нажав кнопку "Ввод!".

Внимание! Время в таблицах - всемирное. Для получения местного времени необходимо прибавить поправку, которая в Минске равна 3 ч.

Смотрите также архив погоды в соседних городах и на ближайших метеорологических станциях:

Погода в Марьиной Горке (Минская область, Беларусь) (63 км)
Погода в Борисове (Минская область, Беларусь) (68 км)
Погода в Воложине (Минская область, Беларусь) (75 км)
Погода в Вилейке (Минская область, Беларусь) (77 км)
Погода в Столбцах (Минская область, Беларусь) (78 км)
Погода в Березино (Минская область, Беларусь) (90 км)
Погода в Слуцке (Минская область, Беларусь) (100 км)
Погода в Докшицах (Витебская область, Беларусь) (106 км)
Погода в Кличеве (Могилевская область, Беларусь) (121 км)
Погода в Новогрудке (Гродненская область, Беларусь) (123 км)

Пояснения к столбцам:

Ветер - указаны скорость ветра в м/с - средняя за 10 мин, порывы в срок и между сроками (в фигурных скобках) и направление, откуда дует ветер: С - северный, СВ - северо-восточный, В - восточный, ЮВ - юго-восточный, Ю - южный, ЮЗ - юго-западный, З - западный, СЗ - северо-западный.
Видимость - горизонтальная дальность видимости в метрах или километрах. При видимости от 1 до 10 км при отсутствии осадков обычно наблюдается дымка, при ухудшении видимости до 1 км и менее - туман. В сухую погоду видимость может ухудшаться дымом, пылью или мглою.
Явления - указаны атмосферные явления, наблюдавшиеся в срок или в последний час перед сроком; фигурными скобками обозначены явления, наблюдавшиеся между сроками (за 1-3 часа до срока); квадратными скобками обозначены град или гололедные отложения с указанием их диаметра в мм.
Облачность - указаны через наклонную черту общая и нижняя облачность в баллах и высота нижней границы облаков в метрах; квадратными скобками обозначены формы облаков: Ci - перистые, Cs - перисто-слоистые, Cc - перисто-кучевые, Ac - высококучевые, As - высокослоистые, Sc - слоисто-кучевые, Ns - слоисто-дождевые, Cu - кучевые, Cb - кучево-дождевые. Подробнее классификацию облаков см. в Атласе облаков (PDF).
T - Температура воздуха - температура, измеренная на высоте 2 м над землей.
Td - Температура точки росы - температура, при понижении до которой содержащийся в воздухе водяной пар достигнет насыщения.
f - Относительная влажность воздуха - влажноcть воздуха, измеренная на высоте 2 м над землей.
Te - Эффективная температура - температура, которую ощущает одетый по сезону человек в тени. Характеристика душности погоды. При расчете учитывается влияние влажности воздуха и скорости ветра на теплоощущения человека.
Tes - Эффективная температура на солнце - температура, которую ощущает человек, с поправкой на солнечный нагрев. Характеристика знойности погоды. Зависит от высоты солнца над горизонтом, облачности и скорости ветра. Ночью, в пасмурную погоду, а также при ветре 12 м/с и более поправка равна нулю.
P - Атмосферное давление - приведенное к уровню моря атмосферное давление.
Po - Атмосферное давление - измеренное на уровне метеостанции атмосферное давление.
Tmin - Минимальная температура - минимум температуры воздуха на высоте 2 м над землей.
Tmax - Максимальная температура - максимум температуры воздуха на высоте 2 м над землей.
R - Количество осадков - Количество выпавших осадков за период времени, мм. При наведении курсора мыши на число - период времени, за который выпало указанное количество осадков.
R24 - Количество осадков - Количество выпавших осадков за 24 часа, мм.
S - Снежный покров - Высота снежного покрова, см. При наведении курсора мыши на число - состояние снежного покрова и степень покрытия местности в баллах.